Tracking 18843 objects as of 21-November-2017
HD Live streaming from Space Station
objects crossing your sky now

GGSE 5

Track GGSE 5 now!
10-day predictions
GGSE 5 is classified as:


NORAD ID: 2834
Int'l Code: 1967-053D
Perigee: 908.2 km
Apogee: 922.9 km
Inclination: 70.0 °
Period: 103.2 minutes
Semi major axis: 7286 km
RCS: 0.7606 m2 (medium)
Launch date: May 31, 1967
Source: United States (US)
Launch site: AIR FORCE WESTERN TEST RANGE (AFWTR)
aabbcc
Your satellite tracking list
Your tracking list is empty




NASA's NSSDC Master Catalog

Two Line Element Set (TLE):
1 02834U 67053D   17324.51353985 -.00000009  00000-0  32111-4 0  9996
2 02834  69.9732 353.5495 0010111 297.1264  62.8810 13.95783282569838
Source of the keplerian elements: AFSPC